Location: Newark
(45.2500°N, 7.5833°E)
Time: 22:56:45
(UTC+00:00)

Vanguard 3 - Pass Details

Date: 30 January 2020
Orbit: 508 x 3263 km, 33.3° (Epoch: 19 February)

Event Time Altitude Azimuth Distance (km) Brightness Sun altitude
Rises 11:55:13 0° 171° (S) 5,848 12.8 27.0°
Reaches altitude 10° 12:02:59 10° 145° (SE) 5,473 12.2 26.9°
Maximum altitude 12:08:21 12° 126° (SE) 5,606 11.9 26.8°
Drops below altitude 10° 12:14:08 10° 108° (ESE) 6,046 11.8 26.6°
Sets 12:23:58 0° 85° (E) 7,234 11.8 26.3°
